[[{"header":{"parameterUnit":"m.s-1","parameterCategory":2,"la1":30.2991,"la2":30.254,"lo1":-89.0895,"lo2":-89.0444,"dy":0.0017,"dx":0.0017,"nx":28,"ny":28,"refTime":"2025-06-15T21:00:00:Z","depth":"0","parameterNumber":2,"parameterNumberName":"U-component_of_CURRENTS"},"data":[0,0,0,0,0,0,0,0,0,0,0,0,0,0,0,0,0,0,0,0,0,0,0,0,0,0,0,0,0,0,0,0,0,0,0,0,0,0,0,0,0,0,0,0,0,0,0,0,0,0,0,0,0,0,0,0,0,0,0.2285,0.2286,0,0.2359,0.2361,0.2362,0.239,0.2389,0.2388,0.2387,0.2422,0.2423,0.2425,0,0,0,0,0,0,0,0,0,0,0,0,0,0.2135,0.2138,0.2285,0.2286,0.2286,0.2359,0.2361,0.2362,0.239,0.2389,0.2388,0.2387,0.2421,0.2423,0.2425,0,0,0,0,0,0,0,0,0,0,0,0,0,0.2211,0.214,0.2285,0.2303,0.2305,0.2359,0.2361,0.2363,0.239,0.2389,0.2388,0.2387,0.242,0.2423,0.2425,0.2467,0,0,0.2433,0.2434,0,0,0,0,0,0,0,0,0.2206,0.2217,0.2301,0.2302,0.2304,0.2358,0.232,0.2393,0.2391,0.2366,0.2387,0.2386,0.2393,0.2398,0.2425,0.2469,0.247,0.2433,0.2435,0.2436,0.2437,0,0,0,0,0,0,0,0.2201,0.2214,0.2322,0.2301,0.2303,0.2296,0.2306,0.2334,0.239,0.2368,0.2368,0.2365,0.2394,0.2423,0.2426,0.2471,0.2433,0.2436,0.2437,0.2438,0.2521,0.2521,0,0,0,0,0,0,0.2182,0.221,0.2319,0.2323,0.2243,0.2299,0.2311,0.2348,0.2391,0.2395,0.2366,0.2366,0.2419,0.2423,0.2427,0.245,0.2436,0.2438,0.244,0.252,0.2521,0.2521,0,0,0,0,0,0,0.2179,0.2193,0.2316,0.2259,0.2274,0.2303,0.2344,0.235,0.2361,0.2389,0.2393,0.2368,0.2418,0.2423,0.2439,0.2452,0.244,0.2442,0.2519,0.252,0.2521,0.2514,0,0,0,0,0,0,0.2175,0.2192,0.2225,0.226,0.2276,0.2329,0.2344,0.2352,0.2359,0.236,0.2393,0.2396,0.2417,0.2435,0.2442,0.2455,0.2444,0.2518,0.252,0.2521,0.2513,0.2515,0.2516,0,0,0,0,0,0.217,0.2203,0.2227,0.224,0.2318,0.2328,0.2336,0.2355,0.236,0.2363,0.2387,0.2394,0.2448,0.2438,0.2445,0.246,0.2518,0.2519,0.2521,0.2513,0.2514,0.2516,0,0,0,0,0,0,0.2138,0.221,0.2236,0.2288,0.2299,0.2329,0.233,0.2348,0.2375,0.2371,0.2402,0.2407,0.2429,0.2444,0.2432,0.2488,0.2485,0.2488,0.2476,0.2478,0.2479,0.2491,0.2446,0,0,0,0,0,0.2152,0.2215,0.2243,0.2286,0.2279,0.2306,0.2316,0.2329,0.2348,0.2359,0.2385,0.2414,0.2448,0.2458,0.2487,0.2514,0.2531,0.2529,0.253,0.2531,0.2546,0.2588,0.2594,0.2526,0.2526,0.2526,0,0,0.2157,0.2198,0.2238,0.2285,0.2292,0.2296,0.2309,0.231,0.2331,0.2358,0.239,0.2418,0.2455,0.249,0.2501,0.2498,0.2553,0.2533,0.2533,0.2548,0.259,0.2597,0.2603,0.2527,0.2527,0.2527,0,0,0.2163,0.2216,0.2252,0.2257,0.2265,0.2283,0.2275,0.2298,0.2318,0.235,0.2381,0.2415,0.2457,0.2499,0.2522,0.2547,0.2559,0.255,0.2566,0.2605,0.2611,0.2617,0.262,0.2626,0.2549,0.2549,0.2549,0,0.2146,0.2215,0.2253,0.2256,0.2259,0.2269,0.2269,0.2295,0.2331,0.2354,0.2349,0.2443,0.2469,0.2531,0.2546,0.2551,0.2562,0.2555,0.2607,0.2613,0.2619,0.2621,0.2628,0.2549,0.2549,0.2549,0.2549,0,0.2187,0.2209,0.2204,0.2241,0.2252,0.2243,0.2266,0.2286,0.2308,0.2345,0.24,0.2448,0.2505,0.252,0.2545,0.2607,0.2595,0.2602,0.2601,0.2625,0.2626,0.2633,0.2549,0.2549,0.2549,0.2549,0,0,0.2183,0.2231,0.2223,0.2223,0.2239,0.2243,0.2271,0.2305,0.2327,0.2373,0.2418,0.2492,0.252,0.2551,0.2587,0.2629,0.2674,0.2636,0.2638,0.2635,0.2737,0.2541,0.253,0.269,0.2692,0.2693,0.271,0,0.2176,0.22,0.2237,0.2229,0.2215,0.224,0.2268,0.2308,0.2344,0.2388,0.245,0.2499,0.2529,0.2557,0.2609,0.2674,0.2698,0.2668,0.2719,0.272,0.254,0.2533,0.2425,0.2415,0.2717,0.2719,0.2719,0,0.2193,0.2195,0.221,0.2215,0.2212,0.222,0.2261,0.2294,0.2359,0.2391,0.2454,0.2498,0.2588,0.2593,0.2709,0.2687,0.2713,0.2746,0.2748,0.2577,0.2537,0.2447,0.2417,0.2376,0.2731,0.273,0.2729,0,0.2179,0.2171,0.2192,0.2191,0.2205,0.2214,0.223,0.2288,0.231,0.2391,0.2405,0.252,0.2553,0.2644,0.2697,0.2719,0.2785,0.2823,0.2661,0.2647,0.2571,0.2545,0.2506,0.2878,0.2878,0.2878,0.2878,0,0.2175,0.2161,0.2174,0.217,0.216,0.2188,0.2197,0.2239,0.2286,0.2305,0.2398,0.2418,0.2567,0.2611,0.2691,0.2668,0.2774,0.2657,0.2639,0.2557,0.2531,0.2504,0.247,0.2879,0.2879,0.2879,0.2879,0,0.2158,0.2183,0.2162,0.216,0.2152,0.2146,0.2144,0.2154,0.2205,0.2231,0.2252,0.2344,0.2385,0.2474,0.2592,0.2602,0.2544,0.2595,0.2456,0.2418,0.2212,0.218,0.2003,0.197,0.2451,0.2446,0.2442,0,0.2162,0.2157,0.214,0.2122,0.2109,0.2089,0.2078,0.2114,0.2119,0.2171,0.2178,0.2204,0.2196,0.2248,0.2284,0.2323,0.2321,0.2228,0.2245,0.216,0.2117,0.2047,0.2032,0.2157,0.2151,0.2146,0.2142,0,0.2121,0.2125,0.2116,0.2074,0.2046,0.2014,0.1994,0.1975,0.2021,0.2021,0.2007,0.1996,0.1988,0.1952,0.1947,0.1988,0.2084,0.2119,0.2111,0.1922,0.1772,0.1744,0.2169,0.2098,0.2102,0.2105,0.2108,0.211,0.2073,0.2054,0.2046,0.1997,0.1975,0.1922,0.1853,0.1842,0.1805,0.1758,0.1814,0.1736,0.1734,0.1693,0.1703,0.1648,0.1693,0.1664,0.1648,0.1599,0.1497,0.1763,0.1605,0.1607,0.1608,0.1609,0.161,0,0.1971,0.198,0.1957,0.1891,0.1831,0.1843,0.1779,0.1691,0.1591,0.1582,0.1517,0.1444,0.1363,0.1384,0.1344,0.1266,0.1278,0.1229,0.1201,0.1231,0.1559,0.1477,0.1186,0.1186,0.1186,0.1186,0.1186,0.1186,0.1923,0.1886,0.1873,0.1745,0.1699,0.1564,0.1496,0.14,0.1351,0.1219,0.1154,0.1145,0.1183,0.1079,0.1009,0.0996,0.0982,0.0811,0.0884,0.1206,0.125,0.1293,0.1213,0.0871,0.087,0.0562,0.0559,0.0557]},{"header":{"parameterUnit":"m.s-1","parameterCategory":2,"la1":30.2991,"la2":30.254,"lo1":-89.0895,"lo2":-89.0444,"dy":0.0017,"dx":0.0017,"nx":28,"ny":28,"refTime":"2025-06-15T21:00:00:Z","depth":"0","parameterNumber":3,"parameterNumberName":"V-component_of_CURRENTS"},"data":[0,0,0,0,0,0,0,0,0,0,0,0,0,0,0,0,0,0,0,0,0,0,0,0,0,0,0,0,0,0,0,0,0,0,0,0,0,0,0,0,0,0,0,0,0,0,0,0,0,0,0,0,0,0,0,0,0,0,0.0361,0.0361,0,0.0379,0.038,0.038,0.0385,0.0384,0.0384,0.0384,0.0404,0.0405,0.0405,0,0,0,0,0,0,0,0,0,0,0,0,0,0.0339,0.0339,0.0361,0.0361,0.0361,0.0379,0.038,0.038,0.0385,0.0384,0.0384,0.0384,0.0403,0.0404,0.0406,0,0,0,0,0,0,0,0,0,0,0,0,0,0.0354,0.0339,0.0361,0.0364,0.0364,0.0379,0.038,0.0381,0.0385,0.0384,0.0384,0.0383,0.0403,0.0404,0.0406,0.0425,0,0,0.041,0.041,0,0,0,0,0,0,0,0,0.0353,0.0356,0.0363,0.0364,0.0364,0.0377,0.0379,0.0394,0.0385,0.038,0.0384,0.0383,0.0394,0.0396,0.0404,0.0425,0.0426,0.041,0.0411,0.0411,0.0412,0,0,0,0,0,0,0,0.0352,0.0355,0.0371,0.0363,0.0364,0.0366,0.0368,0.0382,0.0392,0.038,0.038,0.0378,0.0394,0.0403,0.0404,0.0427,0.041,0.0411,0.0412,0.0412,0.0492,0.0493,0,0,0,0,0,0,0.0345,0.0354,0.0371,0.0371,0.0354,0.0367,0.0369,0.0375,0.0391,0.0393,0.0378,0.0378,0.0401,0.0403,0.0405,0.0459,0.0411,0.0412,0.0413,0.0491,0.0493,0.0494,0,0,0,0,0,0,0.0345,0.0347,0.037,0.036,0.0363,0.0368,0.0375,0.0376,0.0383,0.0389,0.0391,0.0383,0.0401,0.0403,0.0431,0.0458,0.0413,0.0414,0.0489,0.0491,0.0493,0.0546,0,0,0,0,0,0,0.0344,0.0347,0.0347,0.036,0.0363,0.0385,0.0375,0.0377,0.0382,0.0381,0.0395,0.0396,0.04,0.0429,0.0433,0.0459,0.0415,0.0488,0.049,0.0493,0.0543,0.055,0.0555,0,0,0,0,0,0.0344,0.0349,0.0347,0.0349,0.0364,0.0385,0.0388,0.039,0.0382,0.0394,0.0407,0.0395,0.0447,0.0432,0.0435,0.0463,0.0486,0.0489,0.0492,0.054,0.0548,0.0555,0,0,0,0,0,0,0.0339,0.035,0.0348,0.0356,0.037,0.0385,0.0388,0.0392,0.0411,0.0408,0.0414,0.0417,0.0453,0.045,0.0432,0.0493,0.0465,0.0468,0.0499,0.0507,0.0514,0.0521,0.0416,0,0,0,0,0,0.0337,0.0346,0.0358,0.0365,0.0368,0.0378,0.0384,0.0391,0.0407,0.0414,0.0428,0.0444,0.0469,0.048,0.0499,0.0531,0.0514,0.0551,0.0557,0.0563,0.0572,0.0566,0.0572,0.0504,0.0504,0.0504,0,0,0.0336,0.0343,0.0347,0.0364,0.0371,0.0397,0.0381,0.0395,0.0426,0.0414,0.0458,0.0467,0.0482,0.0524,0.0539,0.0524,0.0573,0.0567,0.0571,0.0577,0.057,0.0576,0.0582,0.0506,0.0506,0.0505,0,0,0.0344,0.0345,0.0356,0.0375,0.0389,0.0403,0.0408,0.043,0.0445,0.0486,0.0489,0.0515,0.0549,0.0573,0.0587,0.0639,0.0607,0.0641,0.0682,0.0677,0.0682,0.0687,0.0668,0.067,0.0645,0.0645,0.0645,0,0.034,0.0366,0.0363,0.0387,0.0411,0.0409,0.0443,0.0462,0.0496,0.0521,0.0505,0.0571,0.0577,0.0636,0.0656,0.0655,0.0637,0.0651,0.0684,0.0688,0.0692,0.0671,0.0673,0.0648,0.0648,0.0647,0.0647,0,0.0364,0.0392,0.0401,0.0438,0.046,0.049,0.0516,0.0543,0.0557,0.0582,0.0635,0.0647,0.0685,0.0692,0.0692,0.0733,0.0707,0.0691,0.0662,0.0702,0.0678,0.0679,0.0652,0.0651,0.065,0.065,0,0,0.035,0.0408,0.0415,0.045,0.0496,0.052,0.057,0.0624,0.0662,0.0687,0.074,0.0779,0.0776,0.0791,0.079,0.0788,0.0795,0.0753,0.0752,0.0729,0.077,0.0775,0.0775,0.0779,0.0779,0.078,0.074,0,0.0376,0.0441,0.0462,0.0535,0.0576,0.0603,0.0653,0.0699,0.0733,0.0781,0.0795,0.0837,0.0816,0.0829,0.0831,0.0812,0.0801,0.0806,0.0739,0.0737,0.0732,0.0779,0.0788,0.0756,0.0741,0.0741,0.0741,0,0.0397,0.0446,0.052,0.0604,0.0621,0.066,0.0741,0.0785,0.0846,0.0868,0.0906,0.0911,0.094,0.0895,0.0881,0.0883,0.0833,0.0802,0.0799,0.0787,0.0745,0.0715,0.0758,0.0797,0.0742,0.0742,0.0742,0,0.0407,0.0489,0.0554,0.0585,0.067,0.0705,0.0747,0.0813,0.0857,0.0917,0.0943,0.0977,0.0979,0.0947,0.0896,0.0884,0.0855,0.0827,0.078,0.0778,0.0767,0.0765,0.0838,0.0797,0.0797,0.0797,0.0797,0,0.0441,0.0498,0.0562,0.0604,0.0677,0.0723,0.0796,0.084,0.0902,0.0955,0.098,0.1009,0.0986,0.0971,0.0918,0.0866,0.087,0.0801,0.0779,0.0786,0.0786,0.0803,0.0811,0.0795,0.0796,0.0796,0.0796,0,0.0462,0.0501,0.0583,0.0666,0.0685,0.0739,0.0814,0.0866,0.0915,0.0979,0.0995,0.103,0.101,0.0979,0.0921,0.0887,0.0859,0.0804,0.0813,0.0795,0.0802,0.0812,0.0826,0.0884,0.0761,0.0761,0.0761,0,0.0485,0.0528,0.0616,0.0652,0.0692,0.0762,0.0805,0.0866,0.0917,0.0987,0.1015,0.1019,0.1024,0.0964,0.0907,0.0834,0.0843,0.0799,0.0787,0.0826,0.082,0.0814,0.0862,0.0782,0.0782,0.0782,0.0783,0,0.054,0.0565,0.0633,0.0696,0.0743,0.0801,0.0863,0.0895,0.0962,0.1003,0.1043,0.1049,0.1002,0.0958,0.0881,0.083,0.0859,0.0799,0.0841,0.0858,0.0855,0.0891,0.0774,0.0784,0.0784,0.0784,0.0784,0.0784,0.0579,0.0628,0.0693,0.0758,0.0802,0.0841,0.0872,0.0921,0.0974,0.1023,0.1038,0.1053,0.1035,0.0935,0.0877,0.0848,0.0841,0.0839,0.0847,0.0838,0.091,0.08,0.0789,0.0789,0.0789,0.0789,0.0789,0,0.0634,0.0682,0.0746,0.0813,0.0853,0.0864,0.0913,0.0928,0.0962,0.1019,0.1036,0.1091,0.1027,0.0989,0.094,0.0919,0.0916,0.0919,0.0925,0.0975,0.0875,0.0896,0.0907,0.0907,0.0907,0.0907,0.0907,0.0907,0.0665,0.0738,0.0769,0.0844,0.0875,0.0899,0.0912,0.0921,0.0961,0.1023,0.1088,0.115,0.1238,0.1056,0.1021,0.1007,0.1067,0.1002,0.1066,0.0999,0.0993,0.0987,0.1012,0.1047,0.1048,0.118,0.1182,0.1182]}],[{"header":{"parameterUnit":"m.s-1","parameterCategory":2,"la1":30.2991,"la2":30.254,"lo1":-89.0895,"lo2":-89.0444,"dy":0.0017,"dx":0.0017,"nx":28,"ny":28,"refTime":"2025-06-15T21:00:00:Z","depth":"2","parameterNumber":2,"parameterNumberName":"U-component_of_CURRENTS"},"data":[0,0,0,0,0,0,0,0,0,0,0,0,0,0,0,0,0,0,0,0,0,0,0,0,0,0,0,0,0,0,0,0,0,0,0,0,0,0,0,0,0,0,0,0,0,0,0,0,0,0,0,0,0,0,0,0,0,0,0.1954,0.1954,0,0.2132,0.2136,0.214,0.223,0.2228,0.2227,0.2225,0.227,0.2273,0.2276,0,0,0,0,0,0,0,0,0,0,0,0,0,0.1902,0.1903,0.1954,0.1954,0.1954,0.2131,0.2136,0.2141,0.2231,0.2228,0.2226,0.2224,0.2269,0.2273,0.2276,0,0,0,0,0,0,0,0,0,0,0,0,0,0.2007,0.1903,0.1954,0.2005,0.2009,0.213,0.2136,0.2142,0.2231,0.2228,0.2225,0.2223,0.2268,0.2272,0.2277,0.2363,0,0,0.2291,0.2293,0,0,0,0,0,0,0,0,0.2001,0.2011,0.1997,0.2001,0.2006,0.2137,0.2133,0.2201,0.2232,0.217,0.2225,0.2221,0.2201,0.2211,0.2284,0.2365,0.2367,0.2291,0.2294,0.2296,0.2297,0,0,0,0,0,0,0,0.1993,0.2005,0.2047,0.1997,0.2002,0.2088,0.2101,0.215,0.2214,0.2175,0.2177,0.2163,0.2205,0.228,0.2285,0.2368,0.2291,0.2295,0.2298,0.2299,0.2422,0.2423,0,0,0,0,0,0,0.1919,0.1997,0.2041,0.205,0.1971,0.2089,0.2104,0.2116,0.2217,0.2224,0.2165,0.2166,0.2274,0.228,0.2286,0.2313,0.2296,0.23,0.2302,0.2422,0.2422,0.2423,0,0,0,0,0,0,0.1918,0.1923,0.2033,0.2009,0.2026,0.2089,0.2104,0.212,0.218,0.2206,0.2215,0.2201,0.2272,0.228,0.2294,0.2317,0.2302,0.2306,0.2421,0.2422,0.2423,0.2415,0,0,0,0,0,0,0.1917,0.1923,0.1968,0.2004,0.2023,0.2074,0.2105,0.2125,0.2165,0.2169,0.224,0.2243,0.227,0.2287,0.2299,0.2323,0.231,0.242,0.2422,0.2423,0.2415,0.2416,0.2416,0,0,0,0,0,0.1915,0.1928,0.197,0.1977,0.2064,0.2071,0.2093,0.2144,0.2168,0.2192,0.2226,0.224,0.2302,0.2291,0.2305,0.233,0.242,0.2421,0.2422,0.2414,0.2415,0.2416,0,0,0,0,0,0,0.1909,0.1938,0.1984,0.2006,0.2032,0.2077,0.2107,0.2145,0.2209,0.2216,0.225,0.2255,0.2279,0.2304,0.2291,0.2367,0.2364,0.2368,0.2354,0.2355,0.2356,0.2368,0.2313,0,0,0,0,0,0.1934,0.1962,0.1988,0.2007,0.2016,0.2079,0.2109,0.2137,0.2164,0.2195,0.223,0.2271,0.2308,0.2322,0.2359,0.2405,0.2419,0.2429,0.2429,0.243,0.2448,0.248,0.2485,0.2427,0.2427,0.2427,0,0,0.195,0.195,0.1984,0.2011,0.2047,0.207,0.2094,0.2114,0.215,0.2185,0.2246,0.2274,0.2317,0.2362,0.2376,0.2377,0.2449,0.2432,0.2432,0.245,0.2482,0.2487,0.2492,0.2428,0.2428,0.2428,0,0,0.1935,0.1978,0.2004,0.2014,0.2034,0.2068,0.2061,0.2111,0.2156,0.2206,0.2238,0.2271,0.2333,0.2373,0.24,0.2431,0.2449,0.244,0.2463,0.2493,0.2498,0.2503,0.2504,0.2509,0.2445,0.2445,0.2445,0,0.1953,0.1982,0.2009,0.2004,0.2021,0.2053,0.2079,0.2127,0.2178,0.2212,0.2205,0.2317,0.2346,0.2412,0.2426,0.2436,0.2443,0.2454,0.2494,0.2499,0.2505,0.2505,0.251,0.2444,0.2444,0.2444,0.2444,0,0.1971,0.1987,0.1972,0.2005,0.2035,0.2036,0.2079,0.2119,0.2164,0.2214,0.2278,0.2328,0.239,0.2407,0.2433,0.2494,0.2483,0.2486,0.249,0.251,0.2508,0.2514,0.2444,0.2444,0.2444,0.2444,0,0,0.1992,0.2,0.1995,0.2009,0.2037,0.2046,0.2096,0.2157,0.2191,0.2249,0.2306,0.2383,0.2412,0.2446,0.2481,0.2519,0.2556,0.2524,0.2526,0.2522,0.2603,0.2304,0.2282,0.2564,0.2566,0.2567,0.2578,0,0.1999,0.1997,0.202,0.2032,0.2036,0.2076,0.2116,0.2174,0.2226,0.2277,0.2342,0.2397,0.2425,0.2456,0.2502,0.2561,0.2577,0.2552,0.2588,0.2589,0.2318,0.228,0.2194,0.217,0.2584,0.2585,0.2586,0,0.2021,0.2003,0.2033,0.2037,0.2051,0.207,0.2142,0.2186,0.2256,0.2299,0.2363,0.2406,0.2496,0.2493,0.2597,0.2581,0.2592,0.2617,0.2617,0.235,0.23,0.2223,0.2165,0.2596,0.2595,0.2594,0.2594,0,0.2023,0.2009,0.2038,0.2038,0.2061,0.2087,0.2115,0.2187,0.222,0.2306,0.2322,0.2437,0.2469,0.2546,0.2589,0.2609,0.2661,0.269,0.2421,0.2401,0.2338,0.2306,0.2723,0.2723,0.2723,0.2723,0.2723,0,0.2016,0.2017,0.2023,0.2024,0.2037,0.2073,0.2104,0.2153,0.2206,0.2227,0.2322,0.2332,0.2481,0.2518,0.2585,0.2491,0.2651,0.2406,0.2374,0.2323,0.229,0.2681,0.2676,0.2723,0.2723,0.2723,0.2723,0,0.2013,0.2024,0.2024,0.2036,0.2032,0.2046,0.2057,0.2071,0.213,0.2157,0.2179,0.2261,0.2289,0.2378,0.2476,0.2411,0.241,0.2325,0.2221,0.2168,0.2144,0.2139,0.2052,0.2041,0.2032,0.2025,0.2018,0,0.202,0.202,0.2022,0.2009,0.2004,0.2001,0.1994,0.2036,0.2042,0.2088,0.2089,0.2105,0.2075,0.2056,0.2053,0.2049,0.2158,0.1827,0.1813,0.2092,0.2072,0.2081,0.2089,0.1765,0.1757,0.1751,0.1746,0,0.2004,0.2017,0.2013,0.1979,0.1958,0.1932,0.1915,0.1893,0.1939,0.1938,0.1909,0.1879,0.1829,0.1732,0.1632,0.1625,0.1826,0.1673,0.2055,0.1874,0.1801,0.1787,0.1809,0.1688,0.1694,0.1698,0.1701,0.1703,0.1983,0.1972,0.196,0.1922,0.1901,0.1843,0.1776,0.1751,0.1711,0.164,0.169,0.1562,0.155,0.1318,0.1286,0.1254,0.1371,0.1304,0.1336,0.1372,0.1262,0.1168,0.0919,0.092,0.0921,0.0922,0.0923,0,0.1896,0.19,0.1887,0.1823,0.1761,0.1776,0.1702,0.1594,0.1475,0.143,0.1346,0.1151,0.1027,0.1039,0.0928,0.0844,0.0999,0.0765,0.1018,0.1071,0.1119,0.101,0.0594,0.0593,0.0592,0.0591,0,0,0.1846,0.181,0.1799,0.1673,0.1631,0.1487,0.1413,0.128,0.1196,0.102,0.092,0.0907,0.0947,0.0754,0.073,0.0648,0.0866,0.061,0.0875,0.1226,0.1274,0.1416,0.1298,0,0,0,0,0]},{"header":{"parameterUnit":"m.s-1","parameterCategory":2,"la1":30.2991,"la2":30.254,"lo1":-89.0895,"lo2":-89.0444,"dy":0.0017,"dx":0.0017,"nx":28,"ny":28,"refTime":"2025-06-15T21:00:00:Z","depth":"2","parameterNumber":3,"parameterNumberName":"V-component_of_CURRENTS"},"data":[0,0,0,0,0,0,0,0,0,0,0,0,0,0,0,0,0,0,0,0,0,0,0,0,0,0,0,0,0,0,0,0,0,0,0,0,0,0,0,0,0,0,0,0,0,0,0,0,0,0,0,0,0,0,0,0,0,0,0.0197,0.0196,0,0.0225,0.0225,0.0226,0.0244,0.0243,0.0243,0.0242,0.027,0.0271,0.0273,0,0,0,0,0,0,0,0,0,0,0,0,0,0.0192,0.0193,0.0197,0.0196,0.0196,0.0224,0.0225,0.0227,0.0244,0.0243,0.0242,0.0242,0.027,0.0271,0.0273,0,0,0,0,0,0,0,0,0,0,0,0,0,0.0211,0.0193,0.0197,0.0203,0.0203,0.0224,0.0226,0.0227,0.0244,0.0243,0.0242,0.0241,0.0269,0.0271,0.0273,0.0301,0,0,0.0279,0.028,0,0,0,0,0,0,0,0,0.021,0.0212,0.0202,0.0202,0.0203,0.0224,0.0234,0.0249,0.0244,0.0236,0.0242,0.0241,0.0251,0.0254,0.0271,0.0302,0.0304,0.0279,0.028,0.0281,0.0281,0,0,0,0,0,0,0,0.0209,0.0211,0.0215,0.0202,0.0202,0.0215,0.0218,0.0238,0.0253,0.0237,0.0236,0.0228,0.0252,0.0269,0.0272,0.0304,0.0279,0.0281,0.0282,0.0282,0.0374,0.0375,0,0,0,0,0,0,0.019,0.021,0.0214,0.0215,0.0196,0.0215,0.0218,0.0224,0.0253,0.0254,0.0229,0.0229,0.0267,0.027,0.0273,0.0329,0.0281,0.0283,0.0284,0.0373,0.0374,0.0376,0,0,0,0,0,0,0.019,0.0191,0.0213,0.0207,0.0209,0.0215,0.0222,0.0224,0.0243,0.0246,0.0249,0.0243,0.0266,0.027,0.0297,0.0329,0.0283,0.0285,0.0371,0.0373,0.0375,0.0427,0,0,0,0,0,0,0.0191,0.0191,0.0195,0.0206,0.0209,0.0226,0.0222,0.0225,0.0236,0.0236,0.0259,0.0261,0.0266,0.0294,0.0299,0.0331,0.0287,0.037,0.0372,0.0374,0.0424,0.0431,0.0436,0,0,0,0,0,0.0191,0.0195,0.0195,0.0195,0.0212,0.0226,0.023,0.0236,0.0237,0.025,0.0267,0.026,0.0313,0.0297,0.0302,0.0335,0.0368,0.0371,0.0374,0.0421,0.0429,0.0436,0,0,0,0,0,0,0.0197,0.0197,0.0197,0.0202,0.0212,0.0226,0.0233,0.0241,0.0268,0.0271,0.0277,0.0281,0.0316,0.0318,0.03,0.0368,0.034,0.0344,0.0374,0.0382,0.0388,0.0397,0.0288,0,0,0,0,0,0.0198,0.02,0.0206,0.021,0.0215,0.0228,0.0235,0.0244,0.0261,0.0273,0.0291,0.0311,0.0335,0.035,0.0368,0.0407,0.0389,0.0431,0.0438,0.0443,0.0454,0.0443,0.0449,0.0385,0.0385,0.0385,0,0,0.0201,0.0199,0.0201,0.0211,0.022,0.0247,0.0233,0.0249,0.0283,0.0272,0.0326,0.0332,0.0348,0.0391,0.0408,0.0397,0.0452,0.0447,0.0451,0.046,0.0447,0.0453,0.0458,0.0387,0.0387,0.0387,0,0,0.0207,0.0208,0.0216,0.0232,0.0241,0.0257,0.0263,0.0288,0.031,0.0354,0.0357,0.0381,0.0422,0.0442,0.0456,0.0508,0.0482,0.0515,0.0562,0.0552,0.0557,0.0561,0.0543,0.0545,0.0523,0.0523,0.0523,0,0.0213,0.023,0.0221,0.0241,0.0265,0.0265,0.0303,0.0326,0.0362,0.039,0.0376,0.0443,0.0449,0.0505,0.0525,0.0524,0.0507,0.0531,0.0559,0.0563,0.0566,0.0547,0.0549,0.0526,0.0526,0.0526,0.0525,0,0.0227,0.0255,0.0263,0.0295,0.0319,0.0349,0.0378,0.0409,0.0431,0.0459,0.0512,0.052,0.0559,0.0566,0.0566,0.0606,0.0582,0.0562,0.0537,0.0575,0.0553,0.0554,0.053,0.0529,0.0528,0.0528,0,0,0.0221,0.0267,0.0275,0.0314,0.0359,0.0384,0.0438,0.0495,0.0538,0.0565,0.0621,0.0657,0.0654,0.0669,0.0665,0.0662,0.0668,0.0629,0.0627,0.0608,0.0639,0.0606,0.0603,0.0647,0.0648,0.0648,0.0612,0,0.0247,0.0305,0.0321,0.0399,0.0446,0.0474,0.0526,0.0576,0.0614,0.0665,0.0675,0.0718,0.0696,0.071,0.0708,0.0686,0.0673,0.068,0.0609,0.0607,0.0569,0.0605,0.0575,0.0539,0.0612,0.0612,0.0613,0,0.0265,0.0313,0.039,0.0477,0.0497,0.0537,0.0627,0.0673,0.0734,0.076,0.0796,0.08,0.0827,0.0779,0.0758,0.0763,0.0708,0.0673,0.067,0.0624,0.0577,0.0513,0.0537,0.0613,0.0613,0.0613,0.0613,0,0.0282,0.0364,0.0433,0.0464,0.0552,0.0591,0.0635,0.0706,0.0752,0.0815,0.0842,0.0873,0.0874,0.0835,0.0781,0.0767,0.0734,0.0699,0.0613,0.061,0.0564,0.0556,0.0659,0.0659,0.0659,0.0659,0.0659,0,0.0313,0.0378,0.0444,0.0488,0.057,0.0618,0.0699,0.0743,0.0806,0.086,0.0884,0.0909,0.0882,0.0865,0.0807,0.0728,0.0751,0.0632,0.0604,0.0581,0.0575,0.0623,0.062,0.0658,0.0658,0.0658,0.0658,0,0.0341,0.0376,0.0469,0.056,0.058,0.0644,0.0721,0.0775,0.0826,0.089,0.0906,0.0936,0.0913,0.088,0.0813,0.0748,0.0682,0.0635,0.0612,0.0582,0.0554,0.0554,0.054,0.0539,0.0537,0.0537,0.0536,0,0.0363,0.0412,0.0512,0.0552,0.0594,0.0673,0.0717,0.0779,0.0831,0.0898,0.0923,0.0926,0.0918,0.0832,0.0755,0.0663,0.0648,0.0537,0.0502,0.057,0.0545,0.0546,0.0547,0.0458,0.0457,0.0455,0.0455,0,0.0432,0.0462,0.0534,0.0604,0.0655,0.0716,0.0779,0.081,0.0876,0.0915,0.0948,0.0943,0.0876,0.0782,0.0668,0.0591,0.0562,0.0509,0.0595,0.0494,0.049,0.0466,0.047,0.0445,0.0446,0.0446,0.0447,0.0447,0.0483,0.0537,0.0604,0.0675,0.0721,0.0758,0.079,0.0833,0.0883,0.0912,0.0928,0.0895,0.0819,0.0654,0.057,0.0481,0.049,0.0407,0.0412,0.0417,0.0416,0.0411,0.0349,0.035,0.035,0.035,0.0351,0,0.0546,0.0594,0.0664,0.0734,0.0773,0.0786,0.0831,0.0834,0.0858,0.0874,0.0877,0.0759,0.0664,0.0587,0.0454,0.0366,0.0369,0.031,0.0331,0.034,0.0348,0.0345,0.0259,0.0259,0.0259,0.0258,0,0,0.0577,0.0652,0.0685,0.0762,0.0796,0.0816,0.0826,0.0809,0.0813,0.0776,0.0751,0.0743,0.0665,0.0538,0.0434,0.0351,0.0361,0.0321,0.0397,0.0441,0.0451,0.0399,0.0403,0,0,0,0,0]}],[{"header":{"parameterUnit":"m.s-1","parameterCategory":2,"la1":30.2991,"la2":30.254,"lo1":-89.0895,"lo2":-89.0444,"dy":0.0017,"dx":0.0017,"nx":28,"ny":28,"refTime":"2025-06-15T21:00:00:Z","depth":"4","parameterNumber":2,"parameterNumberName":"U-component_of_CURRENTS"},"data":[0,0,0,0,0,0,0,0,0,0,0,0,0,0,0,0,0,0,0,0,0,0,0,0,0,0,0,0,0,0,0,0,0,0,0,0,0,0,0,0,0,0,0,0,0,0,0,0,0,0,0,0,0,0,0,0,0,0,-0.0575,-0.0575,0,-0.0574,-0.0574,-0.0574,-0.0586,-0.0586,-0.0586,-0.0586,-0.0626,-0.0627,-0.0628,0,0,0,0,0,0,0,0,0,0,0,0,0,-0.0434,-0.0438,-0.0575,-0.0575,-0.0575,-0.0574,-0.0574,-0.0574,-0.0586,-0.0586,-0.0586,-0.0587,-0.0625,-0.0627,-0.0628,0,0,0,0,0,0,0,0,0,0,0,0,0,-0.0473,-0.0439,-0.0575,-0.0579,-0.0579,-0.0574,-0.0574,-0.0574,-0.0586,-0.0586,-0.0586,-0.0587,-0.0625,-0.0626,-0.0628,-0.0633,0,0,-0.0632,-0.0633,0,0,0,0,0,0,0,0,-0.0471,-0.0479,-0.0578,-0.0578,-0.0579,-0.0578,-0.0538,-0.0595,-0.0586,-0.0586,-0.0586,-0.0587,-0.0612,-0.0614,-0.0617,-0.0635,-0.0636,-0.0632,-0.0633,-0.0634,-0.0634,0,0,0,0,0,0,0,-0.0469,-0.0478,-0.0577,-0.0578,-0.0578,-0.0527,-0.0535,-0.0548,-0.06,-0.0586,-0.0586,-0.0582,-0.0613,-0.0615,-0.0618,-0.0637,-0.0632,-0.0633,-0.0634,-0.0635,-0.0618,-0.0617,0,0,0,0,0,0,-0.0473,-0.0477,-0.0577,-0.0577,-0.0521,-0.053,-0.0539,-0.058,-0.0599,-0.0602,-0.0582,-0.0583,-0.0613,-0.0616,-0.0619,-0.0569,-0.0634,-0.0635,-0.0636,-0.0619,-0.0618,-0.0617,0,0,0,0,0,0,-0.0471,-0.0484,-0.0577,-0.0521,-0.0529,-0.0534,-0.0579,-0.058,-0.0591,-0.0596,-0.0599,-0.0592,-0.0613,-0.0617,-0.0621,-0.0573,-0.0636,-0.0637,-0.0621,-0.0619,-0.0617,-0.0505,0,0,0,0,0,0,-0.0467,-0.0484,-0.0519,-0.0524,-0.0533,-0.0573,-0.0579,-0.058,-0.0586,-0.0587,-0.0606,-0.0609,-0.0613,-0.0619,-0.0623,-0.0576,-0.0638,-0.0623,-0.062,-0.0618,-0.051,-0.0499,-0.049,0,0,0,0,0,-0.0463,-0.0504,-0.0522,-0.0533,-0.0582,-0.0573,-0.0573,-0.0576,-0.0586,-0.0588,-0.0592,-0.0609,-0.0606,-0.062,-0.0624,-0.0576,-0.0624,-0.0621,-0.0618,-0.0515,-0.0501,-0.049,0,0,0,0,0,0,-0.0422,-0.0509,-0.0529,-0.0585,-0.058,-0.0574,-0.058,-0.0581,-0.0587,-0.0593,-0.0603,-0.0606,-0.0589,-0.0608,-0.0623,-0.0566,-0.0614,-0.0612,-0.0533,-0.0521,-0.0511,-0.0478,-0.0639,0,0,0,0,0,-0.0441,-0.0536,-0.0542,-0.0591,-0.0587,-0.0587,-0.0587,-0.0585,-0.0585,-0.0589,-0.0573,-0.0575,-0.0579,-0.0573,-0.0577,-0.0554,-0.0583,-0.0525,-0.0514,-0.0505,-0.0482,-0.0452,-0.0436,-0.0607,-0.0607,-0.0607,0,0,-0.0456,-0.0501,-0.0562,-0.0595,-0.0597,-0.0568,-0.0589,-0.0588,-0.0544,-0.0593,-0.0527,-0.0547,-0.0571,-0.0533,-0.0525,-0.0541,-0.0489,-0.0502,-0.0494,-0.0475,-0.0447,-0.043,-0.0415,-0.0605,-0.0606,-0.0606,0,0,-0.0483,-0.0549,-0.0612,-0.06,-0.0599,-0.0575,-0.0574,-0.0545,-0.0516,-0.0463,-0.049,-0.0488,-0.0454,-0.0462,-0.0469,-0.0415,-0.0444,-0.0404,-0.0311,-0.0281,-0.0266,-0.0253,-0.0335,-0.033,-0.0386,-0.0386,-0.0386,0,-0.046,-0.0553,-0.0611,-0.0607,-0.0574,-0.0573,-0.0536,-0.0506,-0.0467,-0.0431,-0.0424,-0.0391,-0.0417,-0.0401,-0.036,-0.039,-0.0399,-0.0353,-0.0265,-0.0252,-0.024,-0.0328,-0.0323,-0.038,-0.0381,-0.0381,-0.0382,0,-0.0519,-0.0555,-0.0567,-0.058,-0.0541,-0.0522,-0.0457,-0.0406,-0.0353,-0.0315,-0.026,-0.028,-0.0259,-0.0262,-0.0282,-0.0218,-0.0267,-0.0264,-0.029,-0.0216,-0.0315,-0.0312,-0.0372,-0.0374,-0.0376,-0.0377,0,0,-0.0512,-0.0599,-0.0595,-0.0573,-0.0519,-0.0479,-0.0389,-0.0304,-0.0254,-0.0184,-0.0118,-0.0099,-0.0106,-0.0114,-0.0152,-0.0112,-0.007,-0.0119,-0.0121,-0.0193,-0.0056,-0.0001,0.0004,-0.0014,-0.0012,-0.0009,-0.0183,0,-0.0505,-0.0541,-0.055,-0.0485,-0.0462,-0.0391,-0.0302,-0.0222,-0.0152,-0.0084,-0.0083,-0.0044,-0.0052,-0.0044,-0.0001,-0.0077,-0.0044,-0.0028,-0.0124,-0.013,-0.0078,0.0018,-0.0,-0.0182,-0.0181,-0.0181,-0.0181,0,-0.0524,-0.0539,-0.0519,-0.0442,-0.0413,-0.0297,-0.0148,-0.0105,-0.0025,0.0022,0.0067,0.0056,0.0063,0.0079,0.0038,0.0063,0.0045,0.0005,-0.0003,0.0026,-0.0063,-0.0256,-0.0177,-0.0178,-0.0178,-0.0178,-0.0178,0,-0.0512,-0.0484,-0.0473,-0.0448,-0.0363,-0.0224,-0.0126,-0.0019,0.0019,0.0093,0.0122,0.0128,0.0114,0.0125,0.0028,0.0069,-0.003,-0.0012,0.0005,0.0,-0.0056,-0.0068,0.0038,0.0039,0.0039,0.004,0.004,0,-0.0485,-0.0469,-0.0426,-0.04,-0.0242,-0.0179,-0.0019,0.007,0.0134,0.014,0.0181,0.0192,0.0159,0.0083,0.0035,-0.0009,-0.0035,0.0045,0.0006,-0.002,-0.0024,-0.0061,-0.007,0.0033,0.0034,0.0036,0.0037,0,-0.0472,-0.0506,-0.0483,-0.0354,-0.0236,-0.0126,0.0101,0.0172,0.0211,0.022,0.0244,0.024,0.0183,0.0078,0.0006,-0.0015,-0.0073,-0.0073,-0.0192,-0.0243,-0.0073,-0.0075,-0.0036,-0.0034,-0.0033,-0.0032,-0.0031,0,-0.0492,-0.0492,-0.0421,-0.0352,-0.0228,-0.004,0.0124,0.0253,0.0288,0.0234,0.0239,0.0211,0.0191,0.0066,0.0014,-0.0098,-0.0062,-0.0145,0.0036,-0.0015,-0.0059,-0.0063,-0.0067,-0.0029,-0.0029,-0.0028,-0.0028,0,-0.0477,-0.0497,-0.0476,-0.0336,-0.0124,-0.0013,0.0218,0.0272,0.0289,0.0318,0.026,0.0231,0.0167,0.0115,0.0014,-0.0049,-0.0118,-0.0129,-0.0129,0.0041,-0.0007,-0.0053,-0.0058,-0.0023,-0.0024,-0.0024,-0.0025,0,-0.047,-0.0466,-0.0452,-0.029,-0.0126,-0.0001,0.0112,0.0228,0.0287,0.026,0.0235,0.0178,0.0151,0.014,0.0033,-0.0011,0.0058,0.0051,0.0043,0.0038,0.0159,0.0114,0.0134,0,0,0,0,0,-0.0421,-0.0417,-0.0361,-0.0255,-0.0139,-0.0011,0.0155,0.0212,0.0293,0.0269,0.0243,0.0191,0.0139,0.0141,0.0123,0.0103,0.0041,0.0084,0.0025,0.0002,-0.0003,0.014,0,0,0,0,0,0,-0.0397,-0.0389,-0.038,-0.0249,-0.0161,-0.0005,0.0108,0.0138,0.0138,0.0176,0.0178,0.018,0.0162,0.0122,0.0108,0.0104,0.0069,0.0074,0.0075,0.0005,0.0,-0.0004,0.0142,0,0,0,0,0]},{"header":{"parameterUnit":"m.s-1","parameterCategory":2,"la1":30.2991,"la2":30.254,"lo1":-89.0895,"lo2":-89.0444,"dy":0.0017,"dx":0.0017,"nx":28,"ny":28,"refTime":"2025-06-15T21:00:00:Z","depth":"4","parameterNumber":3,"parameterNumberName":"V-component_of_CURRENTS"},"data":[0,0,0,0,0,0,0,0,0,0,0,0,0,0,0,0,0,0,0,0,0,0,0,0,0,0,0,0,0,0,0,0,0,0,0,0,0,0,0,0,0,0,0,0,0,0,0,0,0,0,0,0,0,0,0,0,0,0,0.0341,0.0341,0,0.0394,0.0395,0.0396,0.0462,0.0463,0.0464,0.0465,0.0416,0.0414,0.0412,0,0,0,0,0,0,0,0,0,0,0,0,0,0.0257,0.0259,0.034,0.0341,0.0341,0.0394,0.0395,0.0396,0.0462,0.0463,0.0464,0.0465,0.0417,0.0415,0.0412,0,0,0,0,0,0,0,0,0,0,0,0,0,0.0302,0.0259,0.034,0.0379,0.0383,0.0394,0.0395,0.0396,0.0462,0.0463,0.0464,0.0465,0.0418,0.0415,0.0412,0.0366,0,0,0.0402,0.0401,0,0,0,0,0,0,0,0,0.0299,0.0305,0.0373,0.0377,0.0381,0.0421,0.0348,0.038,0.0461,0.0434,0.0465,0.0466,0.0406,0.0404,0.0416,0.0364,0.0362,0.0402,0.04,0.0399,0.0398,0,0,0,0,0,0,0,0.0296,0.0303,0.0364,0.0373,0.0378,0.0381,0.0389,0.0355,0.0412,0.0436,0.0441,0.0443,0.0408,0.0419,0.0415,0.0361,0.0402,0.0399,0.0397,0.0396,0.0219,0.0216,0,0,0,0,0,0,0.0287,0.03,0.0362,0.0365,0.034,0.0381,0.0391,0.0408,0.0414,0.0417,0.0442,0.0446,0.0423,0.0418,0.0413,0.0359,0.0399,0.0396,0.0394,0.0222,0.0218,0.0215,0,0,0,0,0,0,0.0285,0.0292,0.036,0.0331,0.034,0.0381,0.0401,0.0409,0.0464,0.042,0.0421,0.0494,0.0424,0.0417,0.0402,0.0357,0.0394,0.0391,0.0225,0.0221,0.0217,0.025,0,0,0,0,0,0,0.0282,0.0292,0.031,0.0331,0.0341,0.0382,0.0399,0.0409,0.046,0.0467,0.0462,0.0458,0.0425,0.0406,0.0398,0.0354,0.0389,0.0229,0.0223,0.0218,0.0252,0.0247,0.0243,0,0,0,0,0,0.028,0.0304,0.0311,0.0319,0.0363,0.0382,0.0388,0.0422,0.0461,0.048,0.0475,0.046,0.0365,0.0404,0.0394,0.0347,0.0231,0.0225,0.0219,0.0254,0.0248,0.0243,0,0,0,0,0,0,0.0275,0.0313,0.0322,0.0356,0.0371,0.0393,0.0417,0.0448,0.0466,0.0499,0.0456,0.0449,0.0401,0.0371,0.0414,0.0271,0.0281,0.0273,0.0311,0.0305,0.0301,0.0331,0.0386,0,0,0,0,0,0.028,0.0318,0.0333,0.0363,0.0372,0.0404,0.0424,0.0467,0.0478,0.0495,0.0482,0.0442,0.0358,0.034,0.0283,0.0236,0.024,0.0184,0.0179,0.0176,0.0188,0.0135,0.0129,0.0194,0.0194,0.0195,0,0,0.0294,0.0312,0.0339,0.0365,0.0384,0.0413,0.0422,0.0485,0.0505,0.0479,0.0505,0.0442,0.0341,0.0272,0.0245,0.0253,0.0166,0.0168,0.0166,0.018,0.0128,0.0123,0.0118,0.019,0.0191,0.0192,0,0,0.0314,0.0348,0.0375,0.0401,0.0444,0.046,0.0488,0.0535,0.0546,0.0551,0.0504,0.0434,0.0359,0.0264,0.0198,0.0134,0.0142,0.0098,0.0107,0.0056,0.0052,0.0048,0.0097,0.0097,0.0097,0.0097,0.0097,0,0.0309,0.0373,0.0383,0.0412,0.0446,0.0486,0.053,0.0533,0.0574,0.0551,0.0565,0.0405,0.0338,0.0194,0.0158,0.0125,0.0141,0.0147,0.0056,0.0052,0.0048,0.0098,0.0098,0.0098,0.0098,0.0098,0.0098,0,0.0356,0.0414,0.0436,0.0485,0.0504,0.0575,0.0574,0.0595,0.0611,0.0593,0.0497,0.0402,0.0297,0.0232,0.0176,0.0072,0.0113,0.0064,0.009,0.0044,0.0099,0.0099,0.0099,0.0099,0.0099,0.0099,0,0,0.0336,0.0445,0.0465,0.0505,0.0579,0.06,0.0607,0.0595,0.0584,0.0564,0.0503,0.0338,0.03,0.0221,0.0131,0.0076,0.0061,0.0067,0.0064,0.0153,0.0036,0.0017,0.0016,0.0006,0.0005,0.0004,0.0109,0,0.0374,0.0458,0.0505,0.0595,0.0637,0.0668,0.0651,0.0643,0.0609,0.0556,0.0427,0.0339,0.0285,0.0229,0.0162,0.0051,0.0052,0.0043,0.0034,0.0036,0.0052,0.0009,-0.0001,0.0109,0.0109,0.0109,0.0108,0,0.042,0.0469,0.0573,0.0643,0.066,0.0695,0.0688,0.0697,0.0601,0.056,0.0463,0.0381,0.025,0.0229,0.0101,0.0105,0.0095,0.0048,0.0049,0.0018,0.0012,0.0143,0.0108,0.0108,0.0108,0.0108,0.0108,0,0.0406,0.0523,0.0617,0.0661,0.0727,0.0733,0.0743,0.0685,0.0659,0.0572,0.0523,0.0391,0.0304,0.0242,0.0151,0.0129,0.0063,0.0012,0.002,0.0024,0.0005,0.0007,-0.0008,-0.0008,-0.0008,-0.0009,-0.0009,0,0.0425,0.05,0.0623,0.0666,0.0714,0.0752,0.075,0.0724,0.0667,0.0599,0.0534,0.043,0.0299,0.0231,0.0184,0.0105,0.01,0.0033,0.0024,0.0021,0.0023,0.0009,0.001,-0.0005,-0.0006,-0.0006,-0.0007,0,0.038,0.0495,0.0613,0.0708,0.0715,0.0756,0.0749,0.0722,0.0696,0.0604,0.0578,0.0451,0.0335,0.0273,0.0164,0.0133,0.0075,0.0084,0.0172,0.0166,0.0083,0.0084,0.0075,0.0074,0.0074,0.0074,0.0074,0,0.0369,0.0436,0.0616,0.0687,0.073,0.0766,0.0744,0.072,0.0679,0.0584,0.0516,0.0414,0.0314,0.02,0.0127,0.0104,0.0088,0.014,0.0024,0.0087,0.008,0.0081,0.0082,0.0073,0.0073,0.0073,0.0073,0,0.033,0.0445,0.053,0.0658,0.0706,0.0736,0.0701,0.0648,0.0601,0.0572,0.0434,0.0353,0.0234,0.0136,0.0161,0.0122,0.0117,0.0135,0.0134,0.0026,0.0085,0.0079,0.008,0.0072,0.0072,0.0072,0.0072,0,0.0325,0.0383,0.053,0.062,0.07,0.0691,0.0671,0.0596,0.0551,0.0435,0.0376,0.0268,0.0205,0.0148,0.0137,0.0122,0.0074,0.0086,0.0086,0.0087,0.0027,0.01,0.0087,0,0,0,0,0,0.0313,0.0353,0.0452,0.0558,0.0633,0.0666,0.0638,0.0615,0.0513,0.0411,0.0402,0.0289,0.0194,0.0149,0.012,0.0114,0.0087,0.0083,0.0106,0.0066,0.0067,-0.0014,0,0,0,0,0,0,0.0314,0.0405,0.0427,0.048,0.0531,0.0562,0.056,0.0505,0.0454,0.0373,0.0322,0.0292,0.0209,0.0199,0.0115,0.0107,0.0122,0.0042,0.0043,0.0065,0.0066,0.0067,-0.0015,0,0,0,0,0]}]]